Year,Month,Day,Hour,Minute,Value (Times are PST for windspeed in km/hr)
2012,10,12,00,00,0.00
2012,10,12,00,01,0.00
2012,10,12,00,02,0.00
2012,10,12,00,03,1.60
2012,10,12,00,04,0.00
2012,10,12,00,05,0.00
2012,10,12,00,06,0.00
2012,10,12,00,07,0.00
2012,10,12,00,08,0.00
2012,10,12,00,09,0.60
2012,10,12,00,10,0.50
2012,10,12,00,11,0.40
2012,10,12,00,12,3.10
2012,10,12,00,13,3.30
2012,10,12,00,14,0.80
2012,10,12,00,15,0.80
2012,10,12,00,16,0.00
2012,10,12,00,17,0.10
2012,10,12,00,18,0.00
2012,10,12,00,19,1.40
2012,10,12,00,20,0.30
2012,10,12,00,21,0.30
2012,10,12,00,22,0.00
2012,10,12,00,23,0.00
2012,10,12,00,24,0.80
2012,10,12,00,25,3.60
2012,10,12,00,26,2.80
2012,10,12,00,27,1.20
2012,10,12,00,28,1.10
2012,10,12,00,29,0.10
2012,10,12,00,30,0.70
2012,10,12,00,31,1.00
2012,10,12,00,32,0.80
2012,10,12,00,33,1.00
2012,10,12,00,34,2.40
2012,10,12,00,35,3.10
2012,10,12,00,36,2.00
2012,10,12,00,37,1.00
2012,10,12,00,38,0.90
2012,10,12,00,39,1.20
2012,10,12,00,40,0.10
2012,10,12,00,41,1.80
2012,10,12,00,42,3.50
2012,10,12,00,43,1.80
2012,10,12,00,44,3.60
2012,10,12,00,45,3.50
2012,10,12,00,46,0.70
2012,10,12,00,47,0.00
2012,10,12,00,48,0.70
2012,10,12,00,49,5.40
2012,10,12,00,50,5.00
2012,10,12,00,51,4.20
2012,10,12,00,52,3.70
2012,10,12,00,53,2.70
2012,10,12,00,54,5.20
2012,10,12,00,55,3.00
2012,10,12,00,56,1.10
2012,10,12,00,57,4.60
2012,10,12,00,58,4.60
2012,10,12,00,59,2.80
2012,10,12,01,00,0.30
2012,10,12,01,01,3.80
2012,10,12,01,02,5.20
2012,10,12,01,03,6.30
2012,10,12,01,04,6.80
2012,10,12,01,05,8.00
2012,10,12,01,06,4.60
2012,10,12,01,07,3.10
2012,10,12,01,08,0.50
2012,10,12,01,09,2.00
2012,10,12,01,10,0.90
2012,10,12,01,11,3.50
2012,10,12,01,12,4.70
2012,10,12,01,13,2.70
2012,10,12,01,14,1.00
2012,10,12,01,15,4.90
2012,10,12,01,16,2.80
2012,10,12,01,17,0.30
2012,10,12,01,18,1.80
2012,10,12,01,19,1.10
2012,10,12,01,20,0.50
2012,10,12,01,21,3.10
2012,10,12,01,22,0.20
2012,10,12,01,23,4.40
2012,10,12,01,24,0.00
2012,10,12,01,25,0.20
2012,10,12,01,26,0.10
2012,10,12,01,27,0.70
2012,10,12,01,28,0.00
2012,10,12,01,29,0.00
2012,10,12,01,30,0.00
2012,10,12,01,31,1.00
2012,10,12,01,32,2.30
2012,10,12,01,33,0.80
2012,10,12,01,34,0.00
2012,10,12,01,35,0.10
2012,10,12,01,36,2.00
2012,10,12,01,37,3.00
2012,10,12,01,38,1.20
2012,10,12,01,39,0.60
2012,10,12,01,40,3.10
2012,10,12,01,41,4.70
2012,10,12,01,42,5.40
2012,10,12,01,43,5.20
2012,10,12,01,44,2.80
2012,10,12,01,45,0.00
2012,10,12,01,46,0.00
2012,10,12,01,47,1.00
2012,10,12,01,48,1.40
2012,10,12,01,49,5.20
2012,10,12,01,50,0.60
2012,10,12,01,51,0.60
2012,10,12,01,52,0.30
2012,10,12,01,53,0.10
2012,10,12,01,54,0.10
2012,10,12,01,55,2.30
2012,10,12,01,56,1.90
2012,10,12,01,57,4.40
2012,10,12,01,58,3.90
2012,10,12,01,59,4.80
2012,10,12,02,00,5.00
2012,10,12,02,01,2.60
2012,10,12,02,02,5.00
2012,10,12,02,03,6.40
2012,10,12,02,04,4.70
2012,10,12,02,05,0.10
2012,10,12,02,06,1.00
2012,10,12,02,07,4.60
2012,10,12,02,08,6.40
2012,10,12,02,09,3.90
2012,10,12,02,10,2.20
2012,10,12,02,11,2.80
2012,10,12,02,12,3.50
2012,10,12,02,13,3.30
2012,10,12,02,14,2.50
2012,10,12,02,15,2.00
2012,10,12,02,16,1.00
2012,10,12,02,17,0.40
2012,10,12,02,18,1.30
2012,10,12,02,19,0.30
2012,10,12,02,20,0.00
2012,10,12,02,21,0.10
2012,10,12,02,22,1.90
2012,10,12,02,23,0.60
2012,10,12,02,24,0.20
2012,10,12,02,25,0.00
2012,10,12,02,26,0.90
2012,10,12,02,27,0.60
2012,10,12,02,28,1.10
2012,10,12,02,29,2.30
2012,10,12,02,30,3.10
2012,10,12,02,31,2.10
2012,10,12,02,32,0.10
2012,10,12,02,33,0.00
2012,10,12,02,34,3.40
2012,10,12,02,35,1.10
2012,10,12,02,36,4.60
2012,10,12,02,37,4.40
2012,10,12,02,38,6.20
2012,10,12,02,39,1.40
2012,10,12,02,40,5.10
2012,10,12,02,41,6.60
2012,10,12,02,42,4.90
2012,10,12,02,43,1.20
2012,10,12,02,44,0.00
2012,10,12,02,45,2.20
2012,10,12,02,46,5.60
2012,10,12,02,47,5.40
2012,10,12,02,48,1.80
2012,10,12,02,49,0.00
2012,10,12,02,50,6.00
2012,10,12,02,51,3.90
2012,10,12,02,52,1.50
2012,10,12,02,53,0.00
2012,10,12,02,54,0.00
2012,10,12,02,55,0.40
2012,10,12,02,56,3.30
2012,10,12,02,57,7.50
2012,10,12,02,58,4.50
2012,10,12,02,59,1.40
2012,10,12,03,00,1.50
2012,10,12,03,01,2.30
2012,10,12,03,02,0.80
2012,10,12,03,03,1.60
2012,10,12,03,06,0.20
2012,10,12,03,07,3.70
2012,10,12,03,08,2.80
2012,10,12,03,09,1.80
2012,10,12,03,10,1.20
2012,10,12,03,11,0.00
2012,10,12,03,12,0.00
2012,10,12,03,13,1.10
2012,10,12,03,14,4.90
2012,10,12,03,15,3.40
2012,10,12,03,16,4.70
2012,10,12,03,17,2.30
2012,10,12,03,18,2.10
2012,10,12,03,19,1.60
2012,10,12,03,20,3.20
2012,10,12,03,21,1.40
2012,10,12,03,22,3.10
2012,10,12,03,23,1.20
2012,10,12,03,24,3.60
2012,10,12,03,25,5.10
2012,10,12,03,26,6.60
2012,10,12,03,27,3.40
2012,10,12,03,28,1.70
2012,10,12,03,29,4.20
2012,10,12,03,30,4.40
2012,10,12,03,31,1.10
2012,10,12,03,32,0.90
2012,10,12,03,33,0.40
2012,10,12,03,34,4.70
2012,10,12,03,35,2.50
2012,10,12,03,36,0.70
2012,10,12,03,37,1.60
2012,10,12,03,38,0.60
2012,10,12,03,39,2.80
2012,10,12,03,40,2.10
2012,10,12,03,41,0.60
2012,10,12,03,42,2.20
2012,10,12,03,43,2.80
2012,10,12,03,44,6.00
2012,10,12,03,45,6.30
2012,10,12,03,46,2.90
2012,10,12,03,47,4.10
2012,10,12,03,48,1.60
2012,10,12,03,49,6.00
2012,10,12,03,50,0.60
2012,10,12,03,51,0.20
2012,10,12,03,52,0.10
2012,10,12,03,53,3.50
2012,10,12,03,54,5.50
2012,10,12,03,55,4.30
2012,10,12,03,56,2.80
2012,10,12,03,57,1.80
2012,10,12,03,58,3.20
2012,10,12,03,59,1.90
2012,10,12,04,00,1.40
2012,10,12,04,01,4.00
2012,10,12,04,02,2.80
2012,10,12,04,03,0.30
2012,10,12,04,04,0.30
2012,10,12,04,05,2.30
2012,10,12,04,06,1.70
2012,10,12,04,07,3.10
2012,10,12,04,08,4.90
2012,10,12,04,09,2.50
2012,10,12,04,10,5.00
2012,10,12,04,11,4.30
2012,10,12,04,12,5.20
2012,10,12,04,13,2.30
2012,10,12,04,14,0.10
2012,10,12,04,15,2.60
2012,10,12,04,16,2.80
2012,10,12,04,17,4.50
2012,10,12,04,18,0.70
2012,10,12,04,19,1.80
2012,10,12,04,20,1.00
2012,10,12,04,21,2.50
2012,10,12,04,22,1.50
2012,10,12,04,23,4.90
2012,10,12,04,24,3.50
2012,10,12,04,25,3.30
2012,10,12,04,26,3.60
2012,10,12,04,27,3.50
2012,10,12,04,28,3.40
2012,10,12,04,29,1.90
2012,10,12,04,30,4.50
2012,10,12,04,31,4.10
2012,10,12,04,32,0.80
2012,10,12,04,33,2.40
2012,10,12,04,34,1.50
2012,10,12,04,35,0.10
2012,10,12,04,36,0.40
2012,10,12,04,37,2.00
2012,10,12,04,38,2.60
2012,10,12,04,39,3.90
2012,10,12,04,40,2.40
2012,10,12,04,41,4.70
2012,10,12,04,42,7.00
2012,10,12,04,43,4.70
2012,10,12,04,44,2.80
2012,10,12,04,45,3.10
2012,10,12,04,46,2.00
2012,10,12,04,47,2.70
2012,10,12,04,48,3.00
2012,10,12,04,49,5.00
2012,10,12,04,50,5.60
2012,10,12,04,51,4.10
2012,10,12,04,52,3.30
2012,10,12,04,53,1.60
2012,10,12,04,54,2.60
2012,10,12,04,55,5.80
2012,10,12,04,56,5.60
2012,10,12,04,57,6.40
2012,10,12,04,58,5.40
2012,10,12,04,59,3.00
2012,10,12,05,00,2.90
2012,10,12,05,01,3.90
2012,10,12,05,02,5.00
2012,10,12,05,03,6.80
2012,10,12,05,04,5.60
2012,10,12,05,05,5.90
2012,10,12,05,06,4.00
2012,10,12,05,07,4.30
2012,10,12,05,08,5.70
2012,10,12,05,09,3.20
2012,10,12,05,10,7.90
2012,10,12,05,11,5.10
2012,10,12,05,12,5.50
2012,10,12,05,13,6.60
2012,10,12,05,14,6.30
2012,10,12,05,15,4.80
2012,10,12,05,16,3.60
2012,10,12,05,17,6.40
2012,10,12,05,18,8.40
2012,10,12,05,19,4.90
2012,10,12,05,20,6.50
2012,10,12,05,21,3.40
2012,10,12,05,22,5.40
2012,10,12,05,23,6.00
2012,10,12,05,24,2.80
2012,10,12,05,25,3.10
2012,10,12,05,26,3.10
2012,10,12,05,27,5.20
2012,10,12,05,28,5.00
2012,10,12,05,29,6.80
2012,10,12,05,30,5.30
2012,10,12,05,31,4.40
2012,10,12,05,32,4.30
2012,10,12,05,33,5.40
2012,10,12,05,34,4.60
2012,10,12,05,35,7.50
2012,10,12,05,36,7.50
2012,10,12,05,37,10.10
2012,10,12,05,38,6.30
2012,10,12,05,39,5.20
2012,10,12,05,40,5.10
2012,10,12,05,41,3.50
2012,10,12,05,42,6.40
2012,10,12,05,43,3.10
2012,10,12,05,44,3.30
2012,10,12,05,45,4.20
2012,10,12,05,46,3.60
2012,10,12,05,47,3.80
2012,10,12,05,48,2.40
2012,10,12,05,49,4.70
2012,10,12,05,50,3.90
2012,10,12,05,51,2.60
2012,10,12,05,52,4.40
2012,10,12,05,53,6.90
2012,10,12,05,54,4.50
2012,10,12,05,55,4.50
2012,10,12,05,56,6.70
2012,10,12,05,57,5.80
2012,10,12,05,58,6.80
2012,10,12,05,59,5.10
2012,10,12,06,00,1.10
2012,10,12,06,01,1.60
2012,10,12,06,02,4.50
2012,10,12,06,03,6.30
2012,10,12,06,04,3.10
2012,10,12,06,05,1.70
2012,10,12,06,06,6.40
2012,10,12,06,07,4.00
2012,10,12,06,08,4.00
2012,10,12,06,09,3.30
2012,10,12,06,10,5.00
2012,10,12,06,11,6.30
2012,10,12,06,12,4.70
2012,10,12,06,13,5.80
2012,10,12,06,14,4.10
2012,10,12,06,15,4.70
2012,10,12,06,16,4.40
2012,10,12,06,17,8.60
2012,10,12,06,18,4.30
2012,10,12,06,19,7.50
2012,10,12,06,20,6.00
2012,10,12,06,21,2.70
2012,10,12,06,22,4.10
2012,10,12,06,23,5.90
2012,10,12,06,24,5.60
2012,10,12,06,25,5.50
2012,10,12,06,26,4.30
2012,10,12,06,27,4.70
2012,10,12,06,28,4.00
2012,10,12,06,29,3.10
2012,10,12,06,30,4.00
2012,10,12,06,31,4.60
2012,10,12,06,32,3.90
2012,10,12,06,33,4.60
2012,10,12,06,34,3.50
2012,10,12,06,35,5.80
2012,10,12,06,36,2.70
2012,10,12,06,37,6.00
2012,10,12,06,38,4.00
2012,10,12,06,39,3.70
2012,10,12,06,40,7.80
2012,10,12,06,41,6.40
2012,10,12,06,42,5.00
2012,10,12,06,43,7.30
2012,10,12,06,44,6.80
2012,10,12,06,45,5.00
2012,10,12,06,46,5.60
2012,10,12,06,47,7.30
2012,10,12,06,48,5.90
2012,10,12,06,49,7.90
2012,10,12,06,50,6.90
2012,10,12,06,51,8.30
2012,10,12,06,52,7.00
2012,10,12,06,53,5.70
2012,10,12,06,54,7.30
2012,10,12,06,55,8.90
2012,10,12,06,56,6.70
2012,10,12,06,57,7.40
2012,10,12,06,58,6.70
2012,10,12,06,59,7.00
2012,10,12,07,00,5.60
2012,10,12,07,01,9.00
2012,10,12,07,02,6.20
2012,10,12,07,03,4.40
2012,10,12,07,04,7.50
2012,10,12,07,05,9.50
2012,10,12,07,06,4.10
2012,10,12,07,07,6.90
2012,10,12,07,08,7.30
2012,10,12,07,09,1.40
2012,10,12,07,10,4.60
2012,10,12,07,11,4.00
2012,10,12,07,12,6.00
2012,10,12,07,13,2.10
2012,10,12,07,14,9.90
2012,10,12,07,15,6.80
2012,10,12,07,16,5.90
2012,10,12,07,17,5.80
2012,10,12,07,18,7.30
2012,10,12,07,19,6.10
2012,10,12,07,20,6.40
2012,10,12,07,21,5.00
2012,10,12,07,22,10.50
2012,10,12,07,23,5.70
2012,10,12,07,24,6.40
2012,10,12,07,25,2.40
2012,10,12,07,26,6.90
2012,10,12,07,27,1.90
2012,10,12,07,28,5.50
2012,10,12,07,29,9.80
2012,10,12,07,30,5.30
2012,10,12,07,31,7.30
2012,10,12,07,32,4.00
2012,10,12,07,33,3.20
2012,10,12,07,34,4.80
2012,10,12,07,35,8.50
2012,10,12,07,36,2.70
2012,10,12,07,37,3.80
2012,10,12,07,38,1.00
2012,10,12,07,39,3.10
2012,10,12,07,40,6.60
2012,10,12,07,41,3.70
2012,10,12,07,42,1.70
2012,10,12,07,43,2.50
2012,10,12,07,44,6.80
2012,10,12,07,45,1.10
2012,10,12,07,46,1.70
2012,10,12,07,47,5.10
2012,10,12,07,48,4.60
2012,10,12,07,49,2.70
2012,10,12,07,50,5.60
2012,10,12,07,51,3.20
2012,10,12,07,52,2.10
2012,10,12,07,53,3.10
2012,10,12,07,54,7.20
2012,10,12,07,55,3.30
2012,10,12,07,56,1.50
2012,10,12,07,57,0.40
2012,10,12,07,58,1.10
2012,10,12,07,59,4.40
2012,10,12,08,00,4.00
2012,10,12,08,01,3.20
2012,10,12,08,02,2.40
2012,10,12,08,03,5.00
2012,10,12,08,04,2.60
2012,10,12,08,05,0.70
2012,10,12,08,06,0.60
2012,10,12,08,07,0.40
2012,10,12,08,08,3.20
2012,10,12,08,09,4.00
2012,10,12,08,10,4.30
2012,10,12,08,11,5.60
2012,10,12,08,12,6.00
2012,10,12,08,13,5.80
2012,10,12,08,14,2.60
2012,10,12,08,15,1.10
2012,10,12,08,16,2.50
2012,10,12,08,17,3.70
2012,10,12,08,18,4.90
2012,10,12,08,19,4.00
2012,10,12,08,20,7.00
2012,10,12,08,21,6.40
2012,10,12,08,22,5.60
2012,10,12,08,23,6.10
2012,10,12,08,24,6.00
2012,10,12,08,25,6.20
2012,10,12,08,26,7.10
2012,10,12,08,27,8.40
2012,10,12,08,28,5.60
2012,10,12,08,29,7.20
2012,10,12,08,30,7.60
2012,10,12,08,31,3.40
2012,10,12,08,32,2.90
2012,10,12,08,33,5.40
2012,10,12,08,34,6.70
2012,10,12,08,35,7.90
2012,10,12,08,36,7.70
2012,10,12,08,37,6.70
2012,10,12,08,38,7.70
2012,10,12,08,39,10.40
2012,10,12,08,40,11.40
2012,10,12,08,41,9.20
2012,10,12,08,42,8.90
2012,10,12,08,43,7.20
2012,10,12,08,44,9.10
2012,10,12,08,45,8.30
2012,10,12,08,46,10.90
2012,10,12,08,47,8.30
2012,10,12,08,48,3.10
2012,10,12,08,49,1.70
2012,10,12,08,50,3.20
2012,10,12,08,51,4.50
2012,10,12,08,52,4.80
2012,10,12,08,53,5.00
2012,10,12,08,54,7.50
2012,10,12,08,55,11.50
2012,10,12,08,56,8.00
2012,10,12,08,57,8.00
2012,10,12,08,58,8.20
2012,10,12,08,59,6.10
2012,10,12,09,00,5.20
2012,10,12,09,01,6.40
2012,10,12,09,02,8.70
2012,10,12,09,03,5.80
2012,10,12,09,04,10.90
2012,10,12,09,05,6.80
2012,10,12,09,06,4.30
2012,10,12,09,07,8.40
2012,10,12,09,08,8.70
2012,10,12,09,09,6.40
2012,10,12,09,10,8.40
2012,10,12,09,11,8.10
2012,10,12,09,12,9.00
2012,10,12,09,13,7.50
2012,10,12,09,14,8.60
2012,10,12,09,15,7.70
2012,10,12,09,16,8.40
2012,10,12,09,17,8.10
2012,10,12,09,18,7.60
2012,10,12,09,19,8.60
2012,10,12,09,20,6.20
2012,10,12,09,21,9.00
2012,10,12,09,22,12.60
2012,10,12,09,23,9.70
2012,10,12,09,24,6.40
2012,10,12,09,25,6.50
2012,10,12,09,26,11.30
2012,10,12,09,27,8.50
2012,10,12,09,28,9.70
2012,10,12,09,29,9.80
2012,10,12,09,30,8.40
2012,10,12,09,31,8.50
2012,10,12,09,32,11.40
2012,10,12,09,33,7.60
2012,10,12,09,34,7.40
2012,10,12,09,35,14.20
2012,10,12,09,36,10.90
2012,10,12,09,37,9.10
2012,10,12,09,38,7.20
2012,10,12,09,39,7.50
2012,10,12,09,40,5.10
2012,10,12,09,41,10.30
2012,10,12,09,42,11.60
2012,10,12,09,43,8.30
2012,10,12,09,44,8.00
2012,10,12,09,45,8.70
2012,10,12,09,46,6.90
2012,10,12,09,47,9.10
2012,10,12,09,48,7.80
2012,10,12,09,49,6.90
2012,10,12,09,50,11.40
2012,10,12,09,51,4.70
2012,10,12,09,52,6.50
2012,10,12,09,53,6.80
2012,10,12,09,54,4.90
2012,10,12,09,55,4.60
2012,10,12,09,56,6.60
2012,10,12,09,57,3.10
2012,10,12,09,58,5.60
2012,10,12,09,59,4.30
2012,10,12,10,00,0.30
2012,10,12,10,01,4.70
2012,10,12,10,02,5.20
2012,10,12,10,03,3.40
2012,10,12,10,04,6.40
2012,10,12,10,05,2.60
2012,10,12,10,06,2.70
2012,10,12,10,07,2.70
2012,10,12,10,08,4.30
2012,10,12,10,09,3.20
2012,10,12,10,10,4.80
2012,10,12,10,11,0.70
2012,10,12,10,12,1.90
2012,10,12,10,13,1.40
2012,10,12,10,14,1.30
2012,10,12,10,15,2.70
2012,10,12,10,16,0.90
2012,10,12,10,17,3.40
2012,10,12,10,18,1.10
2012,10,12,10,19,1.00
2012,10,12,10,20,2.00
2012,10,12,10,21,2.20
2012,10,12,10,22,0.70
2012,10,12,10,23,1.20
2012,10,12,10,24,2.50
2012,10,12,10,25,0.20
2012,10,12,10,26,0.10
2012,10,12,10,27,4.70
2012,10,12,10,28,3.30
2012,10,12,10,29,1.90
2012,10,12,10,30,4.10
2012,10,12,10,31,2.30
2012,10,12,10,32,5.60
2012,10,12,10,33,1.40
2012,10,12,10,34,0.20
2012,10,12,10,35,1.00
2012,10,12,10,36,4.70
2012,10,12,10,37,2.40
2012,10,12,10,38,0.30
2012,10,12,10,39,0.00
2012,10,12,10,40,0.20
2012,10,12,10,41,0.00
2012,10,12,10,42,0.20
2012,10,12,10,43,2.20
2012,10,12,10,44,1.50
2012,10,12,10,45,3.40
2012,10,12,10,46,2.70
2012,10,12,10,47,0.10
2012,10,12,10,48,0.60
2012,10,12,10,49,1.10
2012,10,12,10,50,1.50
2012,10,12,10,51,6.50
2012,10,12,10,52,1.10
2012,10,12,10,53,3.70
2012,10,12,10,54,0.30
2012,10,12,10,55,0.20
2012,10,12,10,56,0.90
2012,10,12,10,57,0.00
2012,10,12,10,58,1.00
2012,10,12,10,59,1.00
2012,10,12,11,00,1.10
2012,10,12,11,01,2.40
2012,10,12,11,02,6.10
2012,10,12,11,03,1.00
2012,10,12,11,04,0.00
2012,10,12,11,05,0.00
2012,10,12,11,06,0.00
2012,10,12,11,07,4.10
2012,10,12,11,08,1.70
2012,10,12,11,09,0.00
2012,10,12,11,10,0.00
2012,10,12,11,11,2.00
2012,10,12,11,12,0.50
2012,10,12,11,13,0.20
2012,10,12,11,14,2.20
2012,10,12,11,15,3.10
2012,10,12,11,16,1.40
2012,10,12,11,17,1.10
2012,10,12,11,18,0.90
2012,10,12,11,19,0.30
2012,10,12,11,20,1.50
2012,10,12,11,21,1.70
2012,10,12,11,22,2.00
2012,10,12,11,23,3.50
2012,10,12,11,24,2.20
2012,10,12,11,25,3.10
2012,10,12,11,26,2.20
2012,10,12,11,27,4.50
2012,10,12,11,28,2.40
2012,10,12,11,29,0.00
2012,10,12,11,30,5.60
2012,10,12,11,31,2.90
2012,10,12,11,32,3.50
2012,10,12,11,33,2.90
2012,10,12,11,34,2.50
2012,10,12,11,35,2.70
2012,10,12,11,36,2.00
2012,10,12,11,37,0.20
2012,10,12,11,38,0.30
2012,10,12,11,39,0.40
2012,10,12,11,40,0.00
2012,10,12,11,41,0.30
2012,10,12,11,42,4.30
2012,10,12,11,43,2.50
2012,10,12,11,44,5.10
2012,10,12,11,45,3.30
2012,10,12,11,46,1.00
2012,10,12,11,47,2.50
2012,10,12,11,48,2.30
2012,10,12,11,49,0.00
2012,10,12,11,50,3.90
2012,10,12,11,51,0.60
2012,10,12,11,52,0.00
2012,10,12,11,53,1.60
2012,10,12,11,54,0.50
2012,10,12,11,55,1.90
2012,10,12,11,56,0.30
2012,10,12,11,57,0.50
2012,10,12,11,58,1.60
2012,10,12,11,59,3.40
2012,10,12,12,00,0.90
2012,10,12,12,01,1.00
2012,10,12,12,02,0.00
2012,10,12,12,03,0.50
2012,10,12,12,04,1.40
2012,10,12,12,05,0.30
2012,10,12,12,06,0.10
2012,10,12,12,07,1.50
2012,10,12,12,08,0.80
2012,10,12,12,09,1.10
2012,10,12,12,10,0.20
2012,10,12,12,11,4.00
2012,10,12,12,12,5.50
2012,10,12,12,13,2.00
2012,10,12,12,14,1.00
2012,10,12,12,15,0.10
2012,10,12,12,16,0.60
2012,10,12,12,17,0.60
2012,10,12,12,18,1.40
2012,10,12,12,19,0.70
2012,10,12,12,20,3.40
2012,10,12,12,21,3.20
2012,10,12,12,22,5.70
2012,10,12,12,23,2.10
2012,10,12,12,24,0.40
2012,10,12,12,25,3.90
2012,10,12,12,26,8.20
2012,10,12,12,27,7.00
2012,10,12,12,28,9.80
2012,10,12,12,29,9.30
2012,10,12,12,30,5.20
2012,10,12,12,31,10.40
2012,10,12,12,32,3.90
2012,10,12,12,33,0.60
2012,10,12,12,34,2.60
2012,10,12,12,35,8.80
2012,10,12,12,36,6.50
2012,10,12,12,37,2.50
2012,10,12,12,38,5.80
2012,10,12,12,39,9.50
2012,10,12,12,40,5.90
2012,10,12,12,41,4.30
2012,10,12,12,42,6.20
2012,10,12,12,43,5.80
2012,10,12,12,44,7.30
2012,10,12,12,45,6.40
2012,10,12,12,46,2.50
2012,10,12,12,47,6.00
2012,10,12,12,48,6.30
2012,10,12,12,49,1.60
2012,10,12,12,50,0.80
2012,10,12,12,51,1.50
2012,10,12,12,52,2.00
2012,10,12,12,53,2.70
2012,10,12,12,54,4.30
2012,10,12,12,55,1.40
2012,10,12,12,56,1.60
2012,10,12,12,57,1.70
2012,10,12,12,58,1.50
2012,10,12,12,59,2.00
2012,10,12,13,00,0.30
2012,10,12,13,01,0.70
2012,10,12,13,02,1.60
2012,10,12,13,03,1.30
2012,10,12,13,04,0.50
2012,10,12,13,05,0.40
2012,10,12,13,06,2.60
2012,10,12,13,07,1.40
2012,10,12,13,08,2.70
2012,10,12,13,09,0.30
2012,10,12,13,10,0.00
2012,10,12,13,11,3.90
2012,10,12,13,12,3.70
2012,10,12,13,13,0.50
2012,10,12,13,14,1.60
2012,10,12,13,15,0.10
2012,10,12,13,16,0.00
2012,10,12,13,17,0.20
2012,10,12,13,18,5.50
2012,10,12,13,19,6.80
2012,10,12,13,20,6.40
2012,10,12,13,21,1.20
2012,10,12,13,22,1.40
2012,10,12,13,23,0.40
2012,10,12,13,24,0.50
2012,10,12,13,25,1.50
2012,10,12,13,26,2.40
2012,10,12,13,27,1.00
2012,10,12,13,28,0.00
2012,10,12,13,29,0.60
2012,10,12,13,30,0.00
2012,10,12,13,31,0.40
2012,10,12,13,32,0.80
2012,10,12,13,33,0.20
2012,10,12,13,34,0.30
2012,10,12,13,35,1.90
2012,10,12,13,36,0.50
2012,10,12,13,37,0.10
2012,10,12,13,38,1.90
2012,10,12,13,39,1.40
2012,10,12,13,40,1.10
2012,10,12,13,41,2.50
2012,10,12,13,42,0.10
2012,10,12,13,43,0.80
2012,10,12,13,44,2.50
2012,10,12,13,45,0.90
2012,10,12,13,46,0.30
2012,10,12,13,47,0.30
2012,10,12,13,48,1.30
2012,10,12,13,49,1.40
2012,10,12,13,50,3.00
2012,10,12,13,51,0.80
2012,10,12,13,52,0.90
2012,10,12,13,53,0.30
2012,10,12,13,54,0.60
2012,10,12,13,55,0.60
2012,10,12,13,56,4.40
2012,10,12,13,57,3.60
2012,10,12,13,58,2.50
2012,10,12,13,59,0.10
2012,10,12,14,00,3.40
2012,10,12,14,01,5.10
2012,10,12,14,02,3.20
2012,10,12,14,03,2.90
2012,10,12,14,04,2.10
2012,10,12,14,05,4.30
2012,10,12,14,06,3.40
2012,10,12,14,07,2.20
2012,10,12,14,08,1.10
2012,10,12,14,09,1.50
2012,10,12,14,10,0.90
2012,10,12,14,11,0.60
2012,10,12,14,12,3.70
2012,10,12,14,13,4.30
2012,10,12,14,14,2.20
2012,10,12,14,15,0.50
2012,10,12,14,16,1.70
2012,10,12,14,17,0.10
2012,10,12,14,18,0.20
2012,10,12,14,19,0.60
2012,10,12,14,20,0.20
2012,10,12,14,21,0.10
2012,10,12,14,22,0.10
2012,10,12,14,23,0.00
2012,10,12,14,24,0.00
2012,10,12,14,25,0.00
2012,10,12,14,26,0.00
2012,10,12,14,27,0.10
2012,10,12,14,28,0.80
2012,10,12,14,29,1.20
2012,10,12,14,30,0.00
2012,10,12,14,31,0.60
2012,10,12,14,32,0.10
2012,10,12,14,33,0.00
2012,10,12,14,34,0.00
2012,10,12,14,35,0.10
2012,10,12,14,36,0.00
2012,10,12,14,37,0.00
2012,10,12,14,38,2.10
2012,10,12,14,39,0.00
2012,10,12,14,40,0.00
2012,10,12,14,41,0.30
2012,10,12,14,42,0.20
2012,10,12,14,43,0.10
2012,10,12,14,44,0.10
2012,10,12,14,45,0.40
2012,10,12,14,46,0.50
2012,10,12,14,47,0.00
2012,10,12,14,48,0.00
2012,10,12,14,49,0.60
2012,10,12,14,50,0.60
2012,10,12,14,51,0.00
2012,10,12,14,52,0.00
2012,10,12,14,53,0.40
2012,10,12,14,54,2.30
2012,10,12,14,55,0.00
2012,10,12,14,56,0.00
2012,10,12,14,57,0.00
2012,10,12,14,58,0.00
2012,10,12,14,59,0.00
2012,10,12,15,00,0.00
2012,10,12,15,01,0.00
2012,10,12,15,02,0.00
2012,10,12,15,03,0.00
2012,10,12,15,04,0.00
2012,10,12,15,05,0.00
2012,10,12,15,06,0.40
2012,10,12,15,07,0.00
2012,10,12,15,08,0.00
2012,10,12,15,09,0.90
2012,10,12,15,10,1.10
2012,10,12,15,11,0.90
2012,10,12,15,12,1.50
2012,10,12,15,13,4.00
2012,10,12,15,14,1.30
2012,10,12,15,15,1.50
2012,10,12,15,16,0.60
2012,10,12,15,17,3.60
2012,10,12,15,18,1.20
2012,10,12,15,19,1.80
2012,10,12,15,20,3.10
2012,10,12,15,21,0.80
2012,10,12,15,22,0.70
2012,10,12,15,23,3.30
2012,10,12,15,24,1.00
2012,10,12,15,25,0.90
2012,10,12,15,26,1.50
2012,10,12,15,27,0.30
2012,10,12,15,28,1.00
2012,10,12,15,29,0.40
2012,10,12,15,30,1.20
2012,10,12,15,31,0.70
2012,10,12,15,32,4.30
2012,10,12,15,33,1.30
2012,10,12,15,34,1.90
2012,10,12,15,35,1.90
2012,10,12,15,36,1.60
2012,10,12,15,37,3.50
2012,10,12,15,38,4.30
2012,10,12,15,39,3.20
2012,10,12,15,40,1.30
2012,10,12,15,41,1.90
2012,10,12,15,42,1.80
2012,10,12,15,43,1.30
2012,10,12,15,44,3.90
2012,10,12,15,45,1.90
2012,10,12,15,46,3.40
2012,10,12,15,47,1.30
2012,10,12,15,48,0.40
2012,10,12,15,49,1.10
2012,10,12,15,50,1.30
2012,10,12,15,51,0.70
2012,10,12,15,52,0.10
2012,10,12,15,53,0.60
2012,10,12,15,54,1.50
2012,10,12,15,55,1.10
2012,10,12,15,56,2.20
2012,10,12,15,57,0.70
2012,10,12,15,58,3.60
2012,10,12,15,59,0.90
2012,10,12,16,00,0.10
2012,10,12,16,01,0.90
2012,10,12,16,02,2.50
2012,10,12,16,03,3.00
2012,10,12,16,04,1.80
2012,10,12,16,05,1.10
2012,10,12,16,06,1.00
2012,10,12,16,07,1.50
2012,10,12,16,08,1.40
2012,10,12,16,09,1.70
2012,10,12,16,10,2.10
2012,10,12,16,11,6.90
2012,10,12,16,12,5.00
2012,10,12,16,13,1.40
2012,10,12,16,14,0.00
2012,10,12,16,15,0.00
2012,10,12,16,16,0.10
2012,10,12,16,17,1.90
2012,10,12,16,18,4.80
2012,10,12,16,19,2.30
2012,10,12,16,20,1.70
2012,10,12,16,21,0.60
2012,10,12,16,22,1.60
2012,10,12,16,23,2.80
2012,10,12,16,24,2.90
2012,10,12,16,25,2.00
2012,10,12,16,26,1.10
2012,10,12,16,27,1.10
2012,10,12,16,28,0.40
2012,10,12,16,29,0.30
2012,10,12,16,30,1.20
2012,10,12,16,31,1.40
2012,10,12,16,32,0.90
2012,10,12,16,33,0.60
2012,10,12,16,34,0.40
2012,10,12,16,35,1.40
2012,10,12,16,36,3.70
2012,10,12,16,37,2.10
2012,10,12,16,38,1.00
2012,10,12,16,39,0.00
2012,10,12,16,40,0.00
2012,10,12,16,41,2.70
2012,10,12,16,42,3.30
2012,10,12,16,43,1.90
2012,10,12,16,44,0.80
2012,10,12,16,45,2.70
2012,10,12,16,46,1.40
2012,10,12,16,47,0.80
2012,10,12,16,48,3.40
2012,10,12,16,49,2.90
2012,10,12,16,50,2.20
2012,10,12,16,51,0.00
2012,10,12,16,52,3.10
2012,10,12,16,53,0.60
2012,10,12,16,54,2.30
2012,10,12,16,55,1.70
2012,10,12,16,56,1.70
2012,10,12,16,57,0.40
2012,10,12,16,58,0.80
2012,10,12,16,59,0.20
2012,10,12,17,00,2.10
2012,10,12,17,01,0.60
2012,10,12,17,02,0.00
2012,10,12,17,03,1.90
2012,10,12,17,04,1.50
2012,10,12,17,05,0.50
2012,10,12,17,06,0.30
2012,10,12,17,07,1.70
2012,10,12,17,08,2.70
2012,10,12,17,09,3.10
2012,10,12,17,10,0.30
2012,10,12,17,11,2.10
2012,10,12,17,12,0.80
2012,10,12,17,13,1.20
2012,10,12,17,14,0.00
2012,10,12,17,15,0.90
2012,10,12,17,16,2.30
2012,10,12,17,17,1.70
2012,10,12,17,18,0.60
2012,10,12,17,19,1.40
2012,10,12,17,20,1.50
2012,10,12,17,21,4.50
2012,10,12,17,22,1.00
2012,10,12,17,23,2.80
2012,10,12,17,24,3.30
2012,10,12,17,25,1.90
2012,10,12,17,26,2.00
2012,10,12,17,27,0.90
2012,10,12,17,28,3.00
2012,10,12,17,29,3.60
2012,10,12,17,30,1.20
2012,10,12,17,31,5.80
2012,10,12,17,32,5.80
2012,10,12,17,33,3.40
2012,10,12,17,34,2.90
2012,10,12,17,35,0.40
2012,10,12,17,36,0.40
2012,10,12,17,37,1.40
2012,10,12,17,38,0.00
2012,10,12,17,39,1.00
2012,10,12,17,40,1.70
2012,10,12,17,41,1.60
2012,10,12,17,42,0.10
2012,10,12,17,43,1.40
2012,10,12,17,44,0.40
2012,10,12,17,45,0.80
2012,10,12,17,46,0.20
2012,10,12,17,47,0.60
2012,10,12,17,48,3.80
2012,10,12,17,49,2.50
2012,10,12,17,50,0.50
2012,10,12,17,51,0.00
2012,10,12,17,52,1.00
2012,10,12,17,53,3.10
2012,10,12,17,54,0.10
2012,10,12,17,55,2.20
2012,10,12,17,56,1.40
2012,10,12,17,57,1.70
2012,10,12,17,58,4.70
2012,10,12,17,59,1.30
2012,10,12,18,00,1.10
2012,10,12,18,01,1.00
2012,10,12,18,02,0.40
2012,10,12,18,03,1.00
2012,10,12,18,04,2.50
2012,10,12,18,05,4.60
2012,10,12,18,06,2.20
2012,10,12,18,07,0.80